{"data":{"norad_id":53619,"epoch":"2026-09-20T02:32:26.388672Z","epoch_age_seconds":116358,"freshness":"FRESH","line1":"1 53619U 22104AH  26263.10586098  .00001956  00000+0  69035-4 0  9996","line2":"2 53619  53.1619  69.5808 0000954  84.0830 276.0281 15.34388267225145","mean_motion":15.34388267,"eccentricity":9.54e-5,"inclination_deg":53.1619,"raan_deg":69.5808,"arg_perigee_deg":84.083,"mean_anomaly_deg":276.0281,"bstar":6.9035e-5,"rev_number":22514,"period_min":93.848475706573,"perigee_km":462.08549389213,"apogee_km":463.39073286376,"semimajor_km":6840.8751133779,"source":"CELESTRAK","updated_at":"2026-09-21T09:00:32.940874Z"}}